Regional Weather Roundup
Issued by NWS

Home | Current Version | Previous Version | Text Only | Print | Product List | Glossary Off
Versions: 1 2 3 4 5 6 7 8 9 10 11 12 13 14 15 16 17 18 19 20 21 22 23 24 25 26 27 28 29 30 31 32 33 34 35 36 37 38 39 40 41 42 43 44 45 46 47 48 49 50

000
ASUS43 KIND 020109
RWRIN

WEATHER ROUNDUP FOR INDIANA
NATIONAL WEATHER SERVICE INDIANAPOLIS IN
900 PM EDT FRI AUG 01 2014

NOTE: "FAIR" INDICATES FEW OR NO CLOUDS BELOW 12,000 FEET WITH NO
SIGNIFICANT WEATHER AND/OR OBSTRUCTIONS TO VISIBILITY.

* - STATION DOES NOT REPORT WEATHER SUCH AS PRECIPITATION OR FOG.

+ - STATION NOT QUALITY CONTROLLED BY THE NATIONAL WEATHER SERVICE.
    USE DATA WITH CAUTION...ESPECIALLY DEWPOINT AND RELATIVE
    HUMIDITY OBSERVATIONS.

INZ001>003-010>013-019-020-020200-
NORTHWEST INDIANA

CITY           SKY/WX    TMP DP  RH WIND       PRES   REMARKS
GARY /AIRPORT/ MOCLDY    73  55  53 SW3       30.09R
KNOX *+        CLOUDY    66  61  84 NE3       30.09R
LA PORTE +     CLOUDY    64  59  82 NW6       30.11R
MICHIGAN CITY+ CLOUDY    64  59  82 CALM      30.10R
MONTICELLO +   CLOUDY    67  62  84 NW3       30.07R
RENSSELAER +   CLOUDY    68  63  83 CALM      30.09R
VALPARAISO     CLOUDY    64  61  90 CALM      30.10R

$$

LMZ046-743>745-020200-
SOUTHERN LAKE MICHIGAN

STATION/POSITION TIME  TEMP WIND        PRES
                       AIR  DIR/SP/G
                 (UTC) (F)  (DEG/KT/KT) (MB)
MICHIGAN CITY    0100   72  140/  3/  4   N/A

$$

INZ004-005-014>016-021>024-020200-
NORTH CENTRAL INDIANA

CITY           SKY/WX    TMP DP  RH WIND       PRES   REMARKS
GOSHEN         MOCLDY    69  63  81 N6        30.10R
LOGANSPORT +   CLOUDY    64  61  88 S5        30.09R
PERU/GRISSOM   CLOUDY    66  66 100 S2        30.09S
ROCHESTER +    MOCLDY    72  59  64 N6        30.10R
SOUTH BEND     MOCLDY    69  58  67 CALM      30.11R
WARSAW +       MOCLDY    68  61  77 N3        30.10R

$$

INZ006>009-017-018-025>027-020200-
NORTHEAST INDIANA

CITY           SKY/WX    TMP DP  RH WIND       PRES   REMARKS
ANGOLA *+      PTCLDY    72  64  78 CALM      30.11R
AUBURN +       MOCLDY    70  59  68 NW3       30.10R
FORT WAYNE     MOCLDY    71  59  65 CALM      30.09R
HUNTINGTON +   MOCLDY    69  60  75 CALM      30.09R

$$

INZ028-029-035-036-043>045-051>053-020200-
WEST CENTRAL INDIANA

CITY           SKY/WX    TMP DP  RH WIND       PRES   REMARKS
GREENCASTLE +  CLOUDY    68  57  68 CALM      30.09S
LAFAYETTE      CLOUDY    65  63  93 W6        30.07F
TERRE HAUTE    CLOUDY    72  65  78 N6        30.08R

$$

INZ030>032-037>040-046>048-054>057-064-065-020200-
CENTRAL INDIANA

CITY           SKY/WX    TMP DP  RH WIND       PRES   REMARKS
CP ATTERBURY + PTCLDY    70  59  68 N7        30.08S
COLUMBUS       PTCLDY    72  63  73 CALM      30.07R
INDIANAPOLIS   CLOUDY    68  61  78 SE6       30.07F
-EAGLE CREEK   CLOUDY    67  62  84 CALM      30.07F
KOKOMO *+      CLOUDY    68  63  83 CALM      30.09R
MARION +       CLOUDY    67  60  80 S6        30.11R
MT COMFORT *+  MOCLDY    68  64  88 N8        30.09F
SHELBYVILLE    MOCLDY    69  61  75 N3        30.07S
ZIONSVILLE +   CLOUDY    66  60  81 NE5       30.09S

$$

INZ033-034-041-042-049-050-058-059-020200-
EAST CENTRAL INDIANA

CITY           SKY/WX    TMP DP  RH WIND       PRES   REMARKS
MUNCIE         MOCLDY    68  59  73 NW10      30.09R

$$

INZ060-061-067>069-081>083-085>088-020200-
SOUTHWEST INDIANA

CITY           SKY/WX    TMP DP  RH WIND       PRES   REMARKS
EVANSVILLE     PTCLDY    79  60  52 N3        30.04S
WASHINGTON +   PTCLDY    70  67  89 NW3       30.05R

$$

INZ062-063-066-070>080-084-089>092-020200-
SOUTH CENTRAL AND SOUTHEAST INDIANA

CITY           SKY/WX    TMP DP  RH WIND       PRES   REMARKS
BEDFORD +      PTCLDY    72  63  73 N3        30.06
BLOOMINGTON    CLOUDY    67  62  84 N3        30.07F
NORTH VERNON + CLEAR     72  66  83 CALM      30.07

$$




USA.gov is the U.S. government's official web portal to all federal, state and local government web resources and services.